Location: Newark
(0.5300°S, 127.4800°E)
Time: 05:55:06
(UTC+00:00)

Vanguard 3 - Pass Details

Date: 19 September 2019
Orbit: 508 x 3262 km, 33.3° (Epoch: 17 October)

Event Time Altitude Azimuth Distance (km) Brightness Sun altitude
Rises 04:12:57 0° 317° (NW) 7,221 12.1 77.6°
Reaches altitude 10° 04:20:16 10° 332° (NNW) 6,120 11.9 75.8°
Maximum altitude 04:32:52 21° 14° (NNE) 4,695 11.3 72.7°
Drops below altitude 10° 04:42:48 10° 57° (ENE) 4,789 11.0 70.2°
Sets 04:47:23 0° 73° (ENE) 5,333 11.1 69.1°
